Regional Weather Roundup
Issued by NWS Cleveland, OH

Home | Current Version | Previous Version | Text Only | Print | Product List | Glossary On
Versions: 1 2 3 4 5 6 7 8 9 10 11 12 13 14 15 16 17 18 19 20 21 22 23 24 25 26 27 28 29 30 31 32 33 34 35 36 37 38 39 40 41 42 43 44 45 46 47 48 49 50
000
ASUS41 KCLE 231412
RWRCLE
OHIO REGIONAL WEATHER ROUNDUP
NATIONAL WEATHER SERVICE WILMINGTON, OH
900 AM EST MON JAN 23 2017

NOTE: "FAIR" INDICATES FEW OR NO CLOUDS BELOW 12,000 FEET WITH NO
SIGNIFICANT WEATHER AND/OR OBSTRUCTIONS TO VISIBILITY.

OHZ001>008-015>018-024>027-034-035-043-044-231500-
   NORTHWEST OHIO

CITY           SKY/WX    TMP DP  RH WIND       PRES   REMARKS
DEFIANCE       CLOUDY    42  41  96 N10       29.64R FOG
FINDLAY        RAIN      39  36  89 NE16      29.59R FOG
TOLEDO EXPRESS LGT RAIN  40  40 100 NE14      29.64R FOG
TOLEDO EXEC    LGT RAIN  37  37 100 NE12      29.66R FOG
LIMA           LGT RAIN  38  38 100 N13       29.58R FOG
$$

OHZ009>014-019>023-028>033-038-089-231500-
   NORTHEAST OHIO

CITY           SKY/WX    TMP DP  RH WIND       PRES   REMARKS
CLE-HOPKINS    LGT RAIN  40  37  89 NE13      29.63R VSB 1/2
CLE-LAKEFRONT  LGT RAIN  37  36  96 NE15      29.61R FOG
CUY CO. ARPT   LGT RAIN  41  39  93 NE9       29.61R FOG
LORAIN-ELYRIA  RAIN      38  35  89 NE9       29.61R FOG
ASHTABULA      CLOUDY    38  38 100 NE5       29.64R FOG
AKRON-CANTON   LGT RAIN  48  44  86 E13       29.55R FOG
WOOSTER        LGT RAIN  47  45  93 NE15      29.56R FOG
MANSFIELD      LGT RAIN  45  45 100 N10       29.55R FOG
YOUNGSTOWN     LGT RAIN  48  42  80 E12       29.59R
$$

OHZ042-051>053-060>062-070>072-077>081-231500-
  SOUTHWEST OHIO

CITY           SKY/WX    TMP DP  RH WIND       PRES   REMARKS
CINC-COVINGTON LGT RAIN  45  44  97 N16       29.51R FOG
CINC-LUNKEN    LGT RAIN  46  44  93 N14G24    29.52R FOG
HAMILTON       LGT RAIN  45  43  93 N12       29.54R
DAYTON         LGT RAIN  41  40  96 N13       29.55R FOG
WRIGHT-PAT AFB DRIZZLE   43  43 100 N10       29.52R FOG
DAYTON GENERAL LGT RAIN  43  41  93 N13G21    29.51R FOG
WILMINGTON     LGT RAIN  45  45 100 N14       29.48R FOG
$$

OHZ036-037-039>041-045>050-054>059-063>069-073>076-082>088-231500-
  CENTRAL AND SOUTHEAST OHIO

CITY           SKY/WX    TMP DP  RH WIND       PRES   REMARKS
COLUMBUS       LGT RAIN  52  47  83 NE10      29.48R
OSU AIRPORT    CLOUDY    45  45 100 N13       29.49R FOG
BOLTON FIELD   CLOUDY    46  45  93 N12       29.49R FOG
RICKENBACK AFB LGT RAIN  50  47  90 NE10G18   29.47R
NEWARK         LGT RAIN  50  46  86 NE5       29.48R
MARION         LGT RAIN  43  42  97 N14       29.55R FOG
LANCASTER      CLOUDY    52  48  86 NE14      29.47R
ZANESVILLE     LGT RAIN  50  46  86 NE8       29.47R
NEW PHILLY     CLOUDY    50  46  86 NE10      29.52R
$$




USA.gov is the U.S. government's official web portal to all federal, state and local government web resources and services.